Simultaneous Nadir Overpasses (SNOs) Predictions

Prediction of SNOs between AQUA and METOP-A Satellite Orbit:

Table of predicted SNOs for the next 14.0 days since TLE Epoch: 3/20/2020
Index Date (AQUA) Time (AQUA) Lat,Lon (AQUA) SZA (AQUA ) Date (METOP-A) Time (METOP-A) Lat,Lon (METOP-A) SZA (METOP-A ) Distance(km) Time Diff (sec)
1 03/20/2020 21:30:18 76.02,-153.83 76.02 03/20/2020 21:29:33 76.00,-153.81 76.01 1.75 45
2 03/20/2020 22:19:45 -76.07, 13.63 103.94 03/20/2020 22:20:13 -76.07, 13.74 103.95 2.97 28
3 03/23/2020 17:04:34 76.02, -87.41 74.90 03/23/2020 17:03:56 76.00, -87.47 74.89 3.24 38
4 03/23/2020 17:54:01 -76.08, 80.05 105.05 03/23/2020 17:54:36 -76.07, 80.08 105.07 1.81 35
5 03/26/2020 12:38:50 76.03, -21.01 73.80 03/26/2020 12:38:18 76.04, -20.99 73.81 0.63 32
6 03/26/2020 13:28:17 -76.09, 146.45 106.15 03/26/2020 13:28:59 -76.06, 146.43 106.19 3.21 42
7 03/29/2020 08:13:05 76.05, 45.38 72.71 03/29/2020 08:12:40 76.03, 45.33 72.69 2.66 25
8 03/29/2020 09:02:32 -76.11,-147.16 107.25 03/29/2020 09:03:20 -76.10,-147.08 107.26 2.18 48
9 04/01/2020 03:47:21 76.07, 111.75 71.63 04/01/2020 03:47:02 76.06, 111.81 71.63 1.65 19




NCC Satellite Simultaneous Nadir Overpasses (SNOs) Prediction Service
